| time (UTC) | temp F | wind direction | speed knots | gust knots | rain 1hr in | rain 24hr in | rain mn in | humidity % | barometer mb |
| 20260505093131 | 47 | 280 | 2.6 | 6.1 | 0.00 | 0.00 | 0.00 | 48 | 1006.2 |
| 20260505092631 | 47 | 295 | 3.5 | 6.1 | 0.00 | 0.00 | 0.00 | 48 | 1006.2 |
| 20260505092131 | 47 | 319 | 2.6 | 6.1 | 0.00 | 0.00 | 0.00 | 48 | 1006.2 |
| 20260505092114 | 47 | 285 | 2.6 | 5.2 | 0.00 | 0.00 | 0.00 | 49 | 1006.1 |
| 20260505091131 | 47 | 200 | 2.6 | 5.2 | 0.00 | 0.00 | 0.00 | 49 | 1006.0 |
| 20260505090630 | 47 | 338 | 2.6 | 6.1 | 0.00 | 0.00 | 0.00 | 48 | 1005.8 |
| 20260505090130 | 48 | 298 | 2.6 | 7.0 | 0.00 | 0.00 | 0.00 | 48 | 1005.6 |
| 20260505085631 | 48 | 133 | 3.5 | 7.0 | 0.00 | 0.00 | 0.00 | 47 | 1005.4 |
| 20260505085132 | 48 | 300 | 2.6 | 5.2 | 0.00 | 0.00 | 0.00 | 47 | 1005.3 |
| 20260505084632 | 48 | 325 | 2.6 | 7.0 | 0.00 | 0.00 | 0.00 | 48 | 1005.2 |
| 20260505084131 | 48 | 317 | 3.5 | 7.0 | 0.00 | 0.00 | 0.00 | 49 | 1005.2 |
| 20260505083631 | 48 | 322 | 3.5 | 5.2 | 0.00 | 0.00 | 0.00 | 47 | 1005.1 |
| 20260505083128 | 49 | 310 | 2.6 | 6.1 | 0.00 | 0.00 | 0.00 | 47 | 1005.2 |
| 20260505082619 | 49 | 315 | 3.5 | 7.8 | 0.00 | 0.00 | 0.00 | 48 | 1005.0 |
| 20260505082343 | 49 | 273 | 4.3 | 7.8 | 0.00 | 0.00 | 0.00 | 47 | 1004.8 |
| 20260505081621 | 49 | 330 | 3.5 | 7.8 | 0.00 | 0.00 | 0.00 | 48 | 1004.7 |
| 20260505081120 | 49 | 325 | 3.5 | 7.8 | 0.00 | 0.00 | 0.00 | 48 | 1004.5 |
| 20260505080620 | 49 | 329 | 3.5 | 7.8 | 0.00 | 0.00 | 0.00 | 48 | 1004.4 |
| 20260505080121 | 50 | 310 | 3.5 | 7.8 | 0.00 | 0.00 | 0.00 | 48 | 1004.1 |
| 20260505075621 | 50 | 13 | 3.5 | 7.8 | 0.00 | 0.00 | 0.00 | 48 | 1004.0 |
| 20260505075121 | 50 | 19 | 3.5 | 7.8 | 0.00 | 0.00 | 0.00 | 49 | 1003.9 |
| 20260505074621 | 50 | 332 | 3.5 | 8.7 | 0.00 | 0.00 | 0.00 | 48 | 1003.9 |
| 20260505074121 | 51 | 215 | 4.3 | 9.6 | 0.00 | 0.00 | 0.00 | 47 | 1003.9 |
| 20260505073841 | 51 | 341 | 5.2 | 9.6 | 0.00 | 0.00 | 0.00 | 47 | 1003.9 |
| 20260505073115 | 51 | 316 | 5.2 | 10.4 | 0.00 | 0.00 | 0.00 | 47 | 1003.8 |
| 20260505072615 | 51 | 324 | 5.2 | 11.3 | 0.00 | 0.00 | 0.00 | 46 | 1003.8 |
| 20260505072116 | 51 | 304 | 4.3 | 11.3 | 0.00 | 0.00 | 0.00 | 47 | 1003.8 |
| 20260505071616 | 52 | 315 | 4.3 | 9.6 | 0.00 | 0.00 | 0.00 | 47 | 1003.8 |
| 20260505071111 | 52 | 312 | 4.3 | 11.3 | 0.00 | 0.00 | 0.00 | 47 | 1003.8 |
| 20260505070615 | 52 | 276 | 4.3 | 11.3 | 0.00 | 0.00 | 0.00 | 47 | 1003.8 |
| 20260505070113 | 52 | 272 | 4.3 | 10.4 | 0.00 | 0.00 | 0.00 | 47 | 1003.5 |
| 20260505065839 | 53 | 299 | 4.3 | 9.6 | 0.00 | 0.00 | 0.00 | 46 | 1003.4 |
| 20260505065113 | 53 | 316 | 3.5 | 9.6 | 0.00 | 0.00 | 0.00 | 46 | 1003.3 |
| 20260505064614 | 53 | 309 | 4.3 | 9.6 | 0.00 | 0.00 | 0.00 | 46 | 1003.2 |
| 20260505064113 | 53 | 294 | 5.2 | 10.4 | 0.00 | 0.00 | 0.00 | 46 | 1003.1 |
| 20260505063613 | 53 | 355 | 5.2 | 10.4 | 0.00 | 0.00 | 0.00 | 45 | 1003.0 |
| 20260505063114 | 54 | 332 | 5.2 | 9.6 | 0.00 | 0.00 | 0.00 | 46 | 1003.0 |
| 20260505062614 | 54 | 317 | 5.2 | 9.6 | 0.00 | 0.00 | 0.00 | 45 | 1002.9 |
| 20260505062113 | 54 | 335 | 4.3 | 8.7 | 0.00 | 0.00 | 0.00 | 46 | 1002.9 |
| 20260505061614 | 55 | 330 | 4.3 | 8.7 | 0.00 | 0.00 | 0.00 | 45 | 1002.8 |
| 20260505061338 | 55 | 295 | 5.2 | 10.4 | 0.00 | 0.00 | 0.00 | 45 | 1002.8 |
| 20260505060608 | 55 | 317 | 5.2 | 10.4 | 0.00 | 0.00 | 0.00 | 44 | 1002.9 |
| 20260505060108 | 56 | 302 | 5.2 | 13.9 | 0.00 | 0.00 | 0.00 | 44 | 1002.9 |
| 20260505060044 | 56 | 278 | 6.1 | 13.9 | 0.00 | 0.00 | 0.00 | 44 | 1003.0 |
| 20260505055108 | 56 | 325 | 5.2 | 10.4 | 0.00 | 0.00 | 0.00 | 43 | 1002.8 |
| 20260505054608 | 57 | 310 | 4.3 | 10.4 | 0.00 | 0.00 | 0.00 | 43 | 1002.8 |
| 20260505054334 | 57 | 303 | 4.3 | 7.8 | 0.00 | 0.00 | 0.00 | 43 | 1002.7 |
| 20260505053608 | 57 | 295 | 3.5 | 7.8 | 0.00 | 0.00 | 0.00 | 43 | 1002.5 |
| 20260505053110 | 58 | 254 | 4.3 | 8.7 | 0.00 | 0.00 | 0.00 | 42 | 1002.4 |
| 20260505052108 | 58 | 316 | 4.3 | 12.2 | 0.00 | 0.00 | 0.00 | 40 | 1002.0 |
| 20260505051609 | 58 | 316 | 4.3 | 12.2 | 0.00 | 0.00 | 0.00 | 40 | 1002.0 |
| 20260505051328 | 59 | 310 | 4.3 | 8.7 | 0.00 | 0.00 | 0.00 | 38 | 1001.6 |
| 20260505050603 | 59 | 324 | 4.3 | 8.7 | 0.00 | 0.00 | 0.00 | 38 | 1001.4 |
| 20260505050105 | 59 | 325 | 4.3 | 8.7 | 0.00 | 0.00 | 0.00 | 38 | 1001.5 |
| 20260505041604 | 62 | 247 | 6.1 | 13.0 | 0.00 | 0.00 | 0.00 | 35 | 1000.7 |
| 20260505041546 | 62 | 337 | 5.2 | 13.0 | 0.00 | 0.00 | 0.00 | 34 | 1000.6 |
| 20260505040559 | 62 | 241 | 5.2 | 10.4 | 0.00 | 0.00 | 0.00 | 34 | 1000.4 |
| 20260505040059 | 62 | 296 | 5.2 | 10.4 | 0.00 | 0.00 | 0.00 | 34 | 1000.3 |
| 20260505035558 | 62 | 220 | 4.3 | 12.2 | 0.00 | 0.00 | 0.00 | 34 | 1000.3 |
| 20260505035058 | 63 | 227 | 4.3 | 12.2 | 0.00 | 0.00 | 0.00 | 34 | 1000.3 |
| 20260505034559 | 63 | 293 | 4.3 | 10.4 | 0.00 | 0.00 | 0.00 | 34 | 1000.4 |
| 20260505034058 | 63 | 253 | 5.2 | 13.9 | 0.00 | 0.00 | 0.00 | 34 | 1000.4 |
| 20260505033558 | 63 | 271 | 5.2 | 13.9 | 0.00 | 0.00 | 0.00 | 33 | 1000.3 |
| 20260505033059 | 63 | 303 | 4.3 | 8.7 | 0.00 | 0.00 | 0.00 | 33 | 1000.4 |
| 20260505032559 | 64 | 270 | 3.5 | 7.8 | 0.00 | 0.00 | 0.00 | 33 | 1000.4 |
| 20260505032059 | 64 | 281 | 3.5 | 7.8 | 0.00 | 0.00 | 0.00 | 34 | 1000.4 |
| 20260505031820 | 64 | 266 | 3.5 | 10.4 | 0.00 | 0.00 | 0.00 | 35 | 1000.5 |
| 20260505031055 | 64 | 313 | 2.6 | 10.4 | 0.00 | 0.00 | 0.00 | 35 | 1000.2 |
| 20260505030555 | 64 | 246 | 3.5 | 9.6 | 0.00 | 0.00 | 0.00 | 35 | 1000.1 |
| 20260505030054 | 64 | 218 | 4.3 | 11.3 | 0.00 | 0.00 | 0.00 | 34 | 1000.0 |
| 20260505025555 | 65 | 270 | 5.2 | 13.0 | 0.00 | 0.00 | 0.00 | 35 | 999.8 |
| 20260505025054 | 65 | 296 | 5.2 | 13.0 | 0.00 | 0.00 | 0.00 | 33 | 999.8 |
| 20260505024556 | 65 | 282 | 4.3 | 8.7 | 0.00 | 0.00 | 0.00 | 34 | 999.7 |
| 20260505024055 | 65 | 259 | 4.3 | 8.7 | 0.00 | 0.00 | 0.00 | 36 | 999.8 |
| 20260505023820 | 66 | 342 | 5.2 | 13.0 | 0.00 | 0.00 | 0.00 | 37 | 999.6 |
| 20260505023056 | 66 | 324 | 6.1 | 13.0 | 0.00 | 0.00 | 0.00 | 36 | 999.6 |
| 20260505022556 | 66 | 306 | 5.2 | 10.4 | 0.00 | 0.00 | 0.00 | 37 | 999.4 |
| 20260505022056 | 66 | 299 | 4.3 | 9.6 | 0.00 | 0.00 | 0.00 | 39 | 999.3 |
| 20260505021825 | 67 | 250 | 5.2 | 12.2 | 0.00 | 0.00 | 0.00 | 38 | 999.2 |
| 20260505021055 | 67 | 240 | 6.1 | 12.2 | 0.00 | 0.00 | 0.00 | 38 | 999.2 |
| 20260505020815 | 67 | 271 | 5.2 | 12.2 | 0.00 | 0.00 | 0.00 | 37 | 999.0 |
| 20260505020318 | 67 | 286 | 4.3 | 9.6 | 0.00 | 0.00 | 0.00 | 37 | 999.0 |
| 20260505015554 | 68 | 254 | 4.3 | 10.4 | 0.00 | 0.00 | 0.00 | 37 | 998.9 |
| 20260505015056 | 68 | 287 | 4.3 | 10.4 | 0.00 | 0.00 | 0.00 | 37 | 998.8 |
| 20260505014555 | 68 | 308 | 4.3 | 8.7 | 0.00 | 0.00 | 0.00 | 37 | 998.6 |
| 20260505014056 | 69 | 271 | 3.5 | 8.7 | 0.00 | 0.00 | 0.00 | 37 | 998.5 |
| 20260505013555 | 69 | 331 | 4.3 | 9.6 | 0.00 | 0.00 | 0.00 | 37 | 998.2 |
| 20260505013054 | 69 | 307 | 5.2 | 11.3 | 0.00 | 0.00 | 0.00 | 36 | 998.0 |
| 20260505012554 | 70 | 298 | 4.3 | 11.3 | 0.00 | 0.00 | 0.00 | 37 | 997.7 |
| 20260505012054 | 70 | 300 | 3.5 | 10.4 | 0.00 | 0.00 | 0.00 | 38 | 997.4 |
| 20260505011554 | 71 | 327 | 3.5 | 8.7 | 0.00 | 0.00 | 0.00 | 39 | 997.1 |
| 20260505011051 | 71 | 305 | 4.3 | 9.6 | 0.00 | 0.00 | 0.00 | 39 | 997.0 |
| 20260505010549 | 71 | 309 | 3.5 | 9.6 | 0.00 | 0.00 | 0.00 | 39 | 996.9 |
| 20260505010048 | 72 | 277 | 3.5 | 8.7 | 0.00 | 0.00 | 0.00 | 39 | 996.8 |
| 20260505005550 | 72 | 330 | 3.5 | 9.6 | 0.00 | 0.00 | 0.00 | 39 | 996.8 |
| 20260505005050 | 72 | 310 | 4.3 | 13.0 | 0.00 | 0.00 | 0.00 | 39 | 996.7 |
| 20260505004549 | 73 | 245 | 6.1 | 13.0 | 0.00 | 0.00 | 0.00 | 39 | 996.5 |
| 20260505004049 | 74 | 262 | 6.1 | 12.2 | 0.00 | 0.00 | 0.00 | 38 | 996.3 |
| 20260505003550 | 74 | 325 | 5.2 | 12.2 | 0.00 | 0.00 | 0.00 | 37 | 996.0 |
| 20260505003533 | 74 | 300 | 4.3 | 12.2 | 0.00 | 0.00 | 0.00 | 36 | 995.8 |
| 20260505002552 | 74 | 245 | 3.5 | 7.8 | 0.00 | 0.00 | 0.00 | 36 | 995.6 |
| 20260505002050 | 75 | 225 | 3.5 | 7.8 | 0.00 | 0.00 | 0.00 | 36 | 995.5 |
| 20260505001546 | 75 | 233 | 3.5 | 7.0 | 0.00 | 0.00 | 0.00 | 36 | 995.4 |
| 20260505001046 | 75 | 265 | 3.5 | 7.8 | 0.00 | 0.00 | 0.00 | 35 | 995.5 |
| 20260505000544 | 75 | 244 | 3.5 | 7.8 | 0.00 | 0.00 | 0.00 | 35 | 995.5 |
| 20260505000039 | 75 | 264 | 3.5 | 7.0 | 0.00 | 0.00 | 0.00 | 34 | 995.4 |
| 20260504235804 | 76 | 170 | 4.3 | 12.2 | 0.00 | 0.00 | 0.00 | 34 | 995.4 |
| 20260504235041 | 76 | 220 | 5.2 | 12.2 | 0.00 | 0.00 | 0.00 | 34 | 995.6 |
| 20260504234540 | 76 | 256 | 4.3 | 7.8 | 0.00 | 0.00 | 0.00 | 34 | 995.6 |
| 20260504234041 | 76 | 227 | 5.2 | 13.0 | 0.00 | 0.00 | 0.00 | 34 | 995.7 |
| 20260504233540 | 76 | 174 | 7.8 | 15.6 | 0.00 | 0.00 | 0.00 | 33 | 995.6 |
| 20260504233041 | 77 | 214 | 7.8 | 15.6 | 0.00 | 0.00 | 0.00 | 33 | 995.8 |
| 20260504232542 | 77 | 222 | 7.0 | 12.2 | 0.00 | 0.00 | 0.00 | 33 | 996.1 |
| 20260504232039 | 78 | 225 | 6.1 | 13.9 | 0.00 | 0.00 | 0.00 | 32 | 995.4 |
| 20260504231539 | 78 | 231 | 6.1 | 13.9 | 0.00 | 0.00 | 0.00 | 33 | 995.8 |
| 20260504231300 | 78 | 207 | 6.1 | 13.0 | 0.00 | 0.00 | 0.00 | 32 | 995.8 |
| 20260504230805 | 78 | 289 | 6.1 | 13.0 | 0.00 | 0.00 | 0.00 | 32 | 995.9 |
| 20260504230259 | 78 | 230 | 5.2 | 10.4 | 0.00 | 0.00 | 0.00 | 33 | 995.9 |
| 20260504225534 | 78 | 298 | 5.2 | 13.0 | 0.00 | 0.00 | 0.00 | 33 | 995.9 |
| 20260504225035 | 78 | 218 | 5.2 | 13.0 | 0.00 | 0.00 | 0.00 | 33 | 995.9 |
| 20260504224536 | 78 | 186 | 5.2 | 12.2 | 0.00 | 0.00 | 0.00 | 33 | 996.0 |
| 20260504224036 | 79 | 222 | 7.0 | 13.0 | 0.00 | 0.00 | 0.00 | 32 | 995.9 |
| 20260504223536 | 79 | 223 | 6.1 | 13.0 | 0.00 | 0.00 | 0.00 | 31 | 995.9 |
| 20260504223035 | 79 | 270 | 5.2 | 11.3 | 0.00 | 0.00 | 0.00 | 32 | 995.9 |
| 20260504222535 | 79 | 236 | 6.1 | 11.3 | 0.00 | 0.00 | 0.00 | 32 | 996.0 |
| 20260504222036 | 79 | 207 | 6.1 | 13.0 | 0.00 | 0.00 | 0.00 | 31 | 996.0 |
| 20260504221535 | 80 | 208 | 7.0 | 13.0 | 0.00 | 0.00 | 0.00 | 31 | 996.0 |
| 20260504221302 | 80 | 243 | 7.0 | 13.0 | 0.00 | 0.00 | 0.00 | 31 | 996.1 |
| 20260504220537 | 80 | 208 | 7.0 | 12.2 | 0.00 | 0.00 | 0.00 | 30 | 996.0 |
| 20260504220036 | 80 | 225 | 6.1 | 12.2 | 0.00 | 0.00 | 0.00 | 29 | 996.0 |
| 20260504215535 | 79 | 258 | 7.0 | 15.6 | 0.00 | 0.00 | 0.00 | 30 | 996.1 |
| 20260504215034 | 79 | 221 | 7.8 | 15.6 | 0.00 | 0.00 | 0.00 | 30 | 996.3 |
| 20260504214534 | 80 | 239 | 7.8 | 13.9 | 0.00 | 0.00 | 0.00 | 29 | 996.2 |
| 20260504214258 | 79 | 250 | 7.8 | 16.5 | 0.00 | 0.00 | 0.00 | 29 | 996.3 |
| 20260504213535 | 79 | 224 | 7.8 | 16.5 | 0.00 | 0.00 | 0.00 | 29 | 996.2 |
| 20260504213035 | 79 | 237 | 7.8 | 18.2 | 0.00 | 0.00 | 0.00 | 29 | 996.3 |
| 20260504212535 | 79 | 258 | 8.7 | 18.2 | 0.00 | 0.00 | 0.00 | 28 | 996.5 |
| 20260504212035 | 79 | 277 | 7.8 | 16.5 | 0.00 | 0.00 | 0.00 | 28 | 996.5 |
| 20260504211756 | 79 | 247 | 7.8 | 14.8 | 0.00 | 0.00 | 0.00 | 30 | 996.3 |
| 20260504211030 | 79 | 255 | 6.1 | 14.8 | 0.00 | 0.00 | 0.00 | 31 | 996.6 |
| 20260504210529 | 79 | 204 | 5.2 | 16.5 | 0.00 | 0.00 | 0.00 | 32 | 996.7 |
| 20260504210025 | 78 | 247 | 6.1 | 16.5 | 0.00 | 0.00 | 0.00 | 31 | 996.7 |
| 20260504205758 | 79 | 260 | 7.8 | 16.5 | 0.00 | 0.00 | 0.00 | 31 | 996.8 |
| 20260504205025 | 79 | 258 | 7.8 | 16.5 | 0.00 | 0.00 | 0.00 | 30 | 996.7 |
| 20260504204525 | 79 | 270 | 5.2 | 9.6 | 0.00 | 0.00 | 0.00 | 31 | 996.7 |
| 20260504204256 | 79 | 299 | 6.1 | 11.3 | 0.00 | 0.00 | 0.00 | 30 | 996.7 |
| 20260504203526 | 79 | 223 | 7.0 | 13.0 | 0.00 | 0.00 | 0.00 | 30 | 997.0 |
| 20260504203246 | 79 | 268 | 7.0 | 13.0 | 0.00 | 0.00 | 0.00 | 30 | 997.1 |
| 20260504202526 | 78 | 263 | 6.1 | 13.0 | 0.00 | 0.00 | 0.00 | 30 | 997.0 |
| 20260504202027 | 78 | 180 | 7.0 | 13.0 | 0.00 | 0.00 | 0.00 | 30 | 997.0 |
| 20260504201748 | 78 | 224 | 7.8 | 15.6 | 0.00 | 0.00 | 0.00 | 30 | 997.3 |
| 20260504201024 | 78 | 312 | 8.7 | 15.6 | 0.00 | 0.00 | 0.00 | 30 | 997.3 |
| 20260504200521 | 78 | 254 | 7.8 | 15.6 | 0.00 | 0.00 | 0.00 | 29 | 997.5 |
| 20260504200019 | 78 | 279 | 6.1 | 12.2 | 0.00 | 0.00 | 0.00 | 30 | 997.4 |
| 20260504200007 | 78 | 209 | 7.8 | 13.0 | 0.00 | 0.00 | 0.00 | 30 | 997.6 |
| 20260504195022 | 78 | 245 | 7.8 | 15.6 | 0.00 | 0.00 | 0.00 | 29 | 997.5 |
| 20260504194520 | 78 | 281 | 7.0 | 15.6 | 0.00 | 0.00 | 0.00 | 29 | 997.5 |
| 20260504194020 | 78 | 210 | 6.1 | 13.9 | 0.00 | 0.00 | 0.00 | 30 | 997.6 |
| 20260504193520 | 78 | 269 | 6.1 | 11.3 | 0.00 | 0.00 | 0.00 | 30 | 997.6 |
| 20260504193020 | 77 | 263 | 6.1 | 12.2 | 0.00 | 0.01 | 0.00 | 30 | 997.4 |
| 20260504192520 | 77 | 251 | 6.1 | 12.2 | 0.00 | 0.01 | 0.00 | 29 | 997.6 |
| 20260504192021 | 77 | 205 | 6.1 | 13.9 | 0.00 | 0.01 | 0.00 | 30 | 997.6 |
| 20260504191521 | 77 | 221 | 6.1 | 13.9 | 0.00 | 0.01 | 0.00 | 29 | 997.7 |
| 20260504191021 | 77 | 174 | 6.1 | 11.3 | 0.00 | 0.01 | 0.00 | 30 | 997.7 |
| 20260504190737 | 77 | 242 | 6.1 | 13.9 | 0.00 | 0.01 | 0.00 | 31 | 997.5 |
| 20260504190019 | 77 | 282 | 6.1 | 13.9 | 0.00 | 0.01 | 0.00 | 30 | 997.7 |
| 20260504185520 | 77 | 101 | 6.1 | 12.2 | 0.00 | 0.01 | 0.00 | 31 | 997.7 |
| 20260504185015 | 77 | 223 | 6.1 | 12.2 | 0.00 | 0.01 | 0.00 | 30 | 997.8 |
| 20260504184517 | 77 | 215 | 7.0 | 11.3 | 0.00 | 0.01 | 0.00 | 30 | 997.8 |
| 20260504184015 | 76 | 262 | 6.1 | 11.3 | 0.00 | 0.01 | 0.00 | 31 | 997.8 |
| 20260504183515 | 76 | 175 | 5.2 | 11.3 | 0.00 | 0.01 | 0.00 | 31 | 997.9 |
| 20260504183016 | 76 | 254 | 7.0 | 13.0 | 0.00 | 0.01 | 0.00 | 31 | 997.9 |
| 20260504182515 | 76 | 219 | 7.0 | 13.9 | 0.00 | 0.01 | 0.00 | 31 | 997.8 |
| 20260504182015 | 76 | 222 | 7.0 | 13.9 | 0.00 | 0.01 | 0.00 | 30 | 998.0 |
| 20260504181515 | 76 | 279 | 7.0 | 13.0 | 0.00 | 0.01 | 0.00 | 31 | 998.0 |
| 20260504181013 | 75 | 225 | 7.0 | 13.0 | 0.00 | 0.01 | 0.00 | 31 | 998.1 |
| 20260504180510 | 76 | 189 | 7.0 | 13.0 | 0.00 | 0.01 | 0.00 | 29 | 998.0 |
| 20260504180232 | 76 | 177 | 7.0 | 14.8 | 0.00 | 0.01 | 0.00 | 31 | 998.1 |
| 20260504175730 | 75 | 255 | 7.0 | 14.8 | 0.00 | 0.01 | 0.00 | 31 | 997.8 |
| 20260504175009 | 75 | 248 | 6.1 | 13.0 | 0.00 | 0.01 | 0.00 | 30 | 998.1 |
| 20260504174729 | 75 | 189 | 6.1 | 13.9 | 0.00 | 0.01 | 0.00 | 31 | 998.1 |
| 20260504174008 | 75 | 235 | 7.0 | 13.9 | 0.00 | 0.01 | 0.00 | 31 | 998.2 |
| 20260504173727 | 75 | 226 | 7.8 | 13.0 | 0.00 | 0.01 | 0.00 | 30 | 998.4 |
| 20260504173008 | 75 | 220 | 7.0 | 13.0 | 0.00 | 0.01 | 0.00 | 31 | 998.4 |
| 20260504172509 | 75 | 211 | 7.0 | 13.0 | 0.00 | 0.01 | 0.00 | 30 | 998.6 |
| 20260504172228 | 74 | 223 | 7.0 | 13.0 | 0.00 | 0.01 | 0.00 | 30 | 998.5 |
| 20260504171954 | 74 | 205 | 7.0 | 13.0 | 0.00 | 0.01 | 0.00 | 30 | 998.6 |
| 20260504171008 | 74 | 247 | 7.0 | 13.9 | 0.00 | 0.01 | 0.00 | 30 | 998.6 |
| 20260504170509 | 74 | 174 | 7.0 | 13.9 | 0.00 | 0.01 | 0.00 | 31 | 998.8 |
| 20260504151001 | 71 | 267 | 6.1 | 18.2 | 0.00 | 0.01 | 0.00 | 32 | 1000.3 |
| 20260504150723 | 71 | 234 | 5.2 | 18.2 | 0.00 | 0.01 | 0.00 | 35 | 1000.1 |
| 20260504141003 | 67 | 208 | 5.2 | 11.3 | 0.00 | 0.01 | 0.00 | 41 | 1001.0 |
| 20260504140456 | 66 | 211 | 6.1 | 11.3 | 0.00 | 0.01 | 0.00 | 42 | 1001.1 |
| 20260504130456 | 61 | 247 | 4.3 | 8.7 | 0.00 | 0.01 | 0.00 | 49 | 1001.6 |
| 20260504110439 | 44 | 156 | 1.7 | 2.6 | 0.00 | 0.01 | 0.00 | 81 | 1001.8 |
| 20260504100410 | 45 | 155 | 1.7 | 2.6 | 0.00 | 0.01 | 0.00 | 83 | 1002.0 |